Satellite-Ground Cal/Val Site Overpasses Predictions

Prediction of Satellite NPP Overpassing Cal/Val Site: Antarctic Dome C

Ground Cal/Val Site Location: Latitude: -75.10, Longitude: 123.35; Satellite-Ground Site NADIR distance within 100 km.

Table of predicted overpasses for the next 14.0 days since TLE Epoch: 9/21/2024
Interval Starting Time Ending Time Minimum Distance Time Minimum Distance (km)
1 09/21/2024 07:25:09 09/21/2024 07:25:36 09/21/2024 07:25:22 35.43
2 09/23/2024 15:07:31 09/23/2024 15:07:38 09/23/2024 15:07:35 96.60
3 09/24/2024 14:48:28 09/24/2024 14:48:57 09/24/2024 14:48:42 14.88
4 09/26/2024 07:31:14 09/26/2024 07:31:44 09/26/2024 07:31:29 0.33
5 09/29/2024 14:54:34 09/29/2024 14:55:02 09/29/2024 14:54:48 20.53
6 09/30/2024 14:35:50 09/30/2024 14:36:04 09/30/2024 14:35:57 86.61
7 10/01/2024 07:37:20 10/01/2024 07:37:47 10/01/2024 07:37:34 35.41
8 10/02/2024 07:18:32 10/02/2024 07:18:51 10/02/2024 07:18:42 75.01
